Delaware, OH

1:56 PM EDT on June 27, 2017 (GMT -0400)
Delaware Municipal

Weather History for KDLZ - February, 2013

Change the Weather History Date:

Sunday, February 10, 2013

  Actual Average Record
Temperature  
Mean Temperature 34 °F -  
Max Temperature 46 °F 31 °F 61 °F (1959)
Min Temperature 23 °F 10 °F -13 °F (1979)
Degree Days  
Heating Degree Days 30    
Moisture  
Dew Point 25 °F    
Average Humidity 66    
Maximum Humidity 86    
Minimum Humidity 46    
Precipitation  
Precipitation 0.00 in - - ()
Sea Level Pressure  
Sea Level Pressure 30.07 in    
Wind  
Wind Speed 8 mph (SE)    
Max Wind Speed 20 mph    
Max Gust Speed 32 mph    
Visibility 10 miles    
Events Rain    
Averages and records for this station are not official NWS values.
T = Trace of Precipitation, MM = Missing Value Source: NWS Daily Summary

Daily Weather History Graph

Daily Weather History Graph

Search for Another Location

Airport or City:

Trip Planner

Search our weather history database for the weather conditions in past years. The results will help you decide how hot, cold, wet, or windy it might be!

Date:

Astronomy

Feb. 10, 2013 Rise Set
Actual Time 7:31 AM EST 6:02 PM EST
Civil Twilight 7:03 AM EST 6:30 PM EST
Nautical Twilight 6:31 AM EST 7:02 PM EST
Astronomical Twilight 5:59 AM EST 7:34 PM EST
Moon 7:20 AM EST (2/10) 6:52 PM EST (2/10)
Length of Visible Light 11h 27m
Length of Day
10h 30m
New Moon, 0% of the Moon is Illuminated
Feb 10
New Moon
Feb 17
First Quarter
Feb 25
Full
Mar 4
Last Quarter
Mar 11
New

Hourly Weather History & Observations

Time (EST) Temp. Windchill Dew Point Humidity Pressure Visibility Wind Dir Wind Speed Gust Speed Precip Events Conditions
12:04 AM 26.6 °F 22.6 °F 19.4 °F 74% 30.27 in 10.0 mi ESE 3.5 mph - N/A   Clear
12:24 AM 24.8 °F 17.9 °F 19.4 °F 80% 30.26 in 10.0 mi East 5.8 mph - N/A   Clear
12:45 AM 26.6 °F 21.2 °F 19.4 °F 74% 30.26 in 10.0 mi ESE 4.6 mph - N/A   Clear
1:04 AM 24.8 °F 20.5 °F 19.4 °F 80% 30.26 in 10.0 mi ESE 3.5 mph - N/A   Clear
1:24 AM 24.8 °F 19.1 °F 19.4 °F 80% 30.25 in 10.0 mi ESE 4.6 mph - N/A   Clear
1:45 AM 24.8 °F 19.1 °F 19.4 °F 80% 30.24 in 10.0 mi ESE 4.6 mph - N/A   Clear
2:04 AM 23.0 °F 15.8 °F 19.4 °F 86% 30.24 in 10.0 mi ESE 5.8 mph - N/A   Clear
2:24 AM 24.8 °F 17.9 °F 19.4 °F 80% 30.24 in 10.0 mi ESE 5.8 mph - N/A   Clear
2:44 AM 26.6 °F 18.2 °F 19.4 °F 74% 30.23 in 10.0 mi ESE 8.1 mph - N/A   Clear
3:04 AM 26.6 °F 19.1 °F 19.4 °F 74% 30.22 in 10.0 mi ESE 6.9 mph - N/A   Clear
3:25 AM 26.6 °F 20.0 °F 19.4 °F 74% 30.22 in 10.0 mi ESE 5.8 mph - N/A   Clear
3:44 AM 28.4 °F 23.3 °F 19.4 °F 69% 30.22 in 10.0 mi SE 4.6 mph - N/A   Clear
4:04 AM 28.4 °F 23.3 °F 19.4 °F 69% 30.22 in 10.0 mi SSE 4.6 mph - N/A   Clear
4:25 AM 28.4 °F 23.3 °F 19.4 °F 69% 30.22 in 10.0 mi SE 4.6 mph - N/A   Clear
4:44 AM 28.4 °F 23.3 °F 19.4 °F 69% 30.21 in 10.0 mi ESE 4.6 mph - N/A   Clear
5:04 AM 28.4 °F 23.3 °F 21.2 °F 74% 30.21 in 10.0 mi SE 4.6 mph - N/A   Clear
5:25 AM 28.4 °F 23.3 °F 21.2 °F 74% 30.21 in 10.0 mi SE 4.6 mph - N/A   Clear
5:44 AM 28.4 °F 23.3 °F 21.2 °F 74% 30.22 in 10.0 mi SE 4.6 mph - N/A   Clear
6:05 AM 28.4 °F 21.2 °F 19.4 °F 69% 30.20 in 10.0 mi ESE 6.9 mph - N/A   Clear
6:25 AM 30.2 °F 23.4 °F 21.2 °F 69% 30.19 in 10.0 mi SE 6.9 mph - N/A   Clear
6:44 AM 30.2 °F 23.4 °F 21.2 °F 69% 30.19 in 10.0 mi SE 6.9 mph - N/A   Scattered Clouds
7:05 AM 30.2 °F 23.4 °F 21.2 °F 69% 30.19 in 10.0 mi SE 6.9 mph - N/A   Mostly Cloudy
7:25 AM 30.2 °F 22.6 °F 21.2 °F 69% 30.17 in 10.0 mi East 8.1 mph - N/A   Mostly Cloudy
7:44 AM 30.2 °F 20.2 °F 21.2 °F 69% 30.22 in 10.0 mi SSW 12.7 mph 18.4 mph N/A   Overcast
8:05 AM 30.2 °F 22.6 °F 21.2 °F 69% 30.18 in 10.0 mi SE 8.1 mph - N/A   Scattered Clouds
8:25 AM 30.2 °F 23.4 °F 21.2 °F 69% 30.19 in 10.0 mi SSE 6.9 mph - N/A   Scattered Clouds
8:44 AM 32.0 °F 24.8 °F 21.2 °F 64% 30.18 in 10.0 mi SE 8.1 mph - N/A   Scattered Clouds
9:05 AM 32.0 °F 24.2 °F 21.2 °F 64% 30.17 in 10.0 mi SE 9.2 mph - N/A   Clear
9:24 AM 32.0 °F 24.2 °F 21.2 °F 64% 30.16 in 10.0 mi SE 9.2 mph - N/A   Clear
9:44 AM 32.0 °F 24.2 °F 21.2 °F 64% 30.14 in 10.0 mi SE 9.2 mph - N/A   Clear
10:05 AM 33.8 °F 28.6 °F 21.2 °F 60% 30.14 in 10.0 mi SE 5.8 mph - N/A   Clear
10:24 AM 33.8 °F 27.7 °F 23.0 °F 65% 30.14 in 10.0 mi SE 6.9 mph - N/A   Clear
10:44 AM 35.6 °F 29.2 °F 23.0 °F 60% 30.14 in 10.0 mi SSE 8.1 mph - N/A   Clear
11:05 AM 35.6 °F 28.6 °F 23.0 °F 60% 30.15 in 10.0 mi SSE 9.2 mph - N/A   Mostly Cloudy
11:24 AM 35.6 °F 29.2 °F 23.0 °F 60% 30.15 in 10.0 mi SSE 8.1 mph - N/A   Overcast
11:44 AM 35.6 °F 30.7 °F 23.0 °F 60% 30.14 in 10.0 mi SSE 5.8 mph - N/A   Overcast
12:05 PM 35.6 °F 31.7 °F 24.8 °F 65% 30.12 in 10.0 mi SSE 4.6 mph - N/A   Overcast
12:24 PM 37.4 °F 32.1 °F 24.8 °F 60% 30.09 in 10.0 mi SE 6.9 mph - N/A   Overcast
12:44 PM 37.4 °F 30.8 °F 24.8 °F 60% 30.07 in 10.0 mi SE 9.2 mph - N/A   Overcast
1:05 PM 39.2 °F 33.6 °F 24.8 °F 56% 30.05 in 10.0 mi SE 8.1 mph - N/A   Overcast
1:24 PM 41.0 °F 35.2 °F 26.6 °F 57% 30.03 in 10.0 mi SSE 9.2 mph - N/A   Overcast
1:45 PM 41.0 °F 35.2 °F 26.6 °F 57% 30.03 in 10.0 mi SSE 9.2 mph - N/A   Overcast
2:05 PM 41.0 °F 35.8 °F 28.4 °F 61% 30.02 in 10.0 mi SSE 8.1 mph - N/A   Overcast
2:24 PM 42.8 °F 38.0 °F 28.4 °F 57% 30.00 in 10.0 mi SSE 8.1 mph - N/A   Overcast
2:45 PM 44.6 °F 39.2 °F 28.4 °F 53% 29.98 in 10.0 mi SSE 10.4 mph - N/A   Overcast
3:05 PM 46.4 °F 42.4 °F 28.4 °F 50% 29.97 in 10.0 mi SSE 8.1 mph - N/A   Scattered Clouds
3:24 PM 46.4 °F 41.1 °F 26.6 °F 46% 29.96 in 10.0 mi SSE 11.5 mph - N/A   Clear
3:45 PM 44.6 °F 39.7 °F 28.4 °F 53% 29.97 in 10.0 mi SSE 9.2 mph - N/A   Mostly Cloudy
4:05 PM 42.8 °F 37.5 °F 28.4 °F 57% 29.98 in 10.0 mi SSE 9.2 mph - N/A   Overcast
4:24 PM 44.6 °F 40.2 °F 28.4 °F 53% 29.97 in 10.0 mi SE 8.1 mph - N/A   Overcast
4:45 PM 44.6 °F 39.7 °F 26.6 °F 49% 29.95 in 10.0 mi ESE 9.2 mph - N/A   Overcast
5:05 PM 42.8 °F 37.5 °F 28.4 °F 57% 29.95 in 10.0 mi SE 9.2 mph - N/A   Mostly Cloudy
5:24 PM 42.8 °F 37.5 °F 28.4 °F 57% 29.95 in 10.0 mi SE 9.2 mph - N/A   Mostly Cloudy
5:45 PM 42.8 °F 37.0 °F 28.4 °F 57% 29.93 in 10.0 mi SE 10.4 mph - N/A   Scattered Clouds
6:04 PM 42.8 °F 36.6 °F 28.4 °F 57% 29.91 in 10.0 mi SE 11.5 mph - N/A   Mostly Cloudy
6:24 PM 42.8 °F 36.2 °F 28.4 °F 57% 29.89 in 10.0 mi SE 12.7 mph - N/A   Overcast
6:45 PM 44.6 °F 36.9 °F 28.4 °F 53% 29.85 in 10.0 mi SE 18.4 mph 24.2 mph N/A   Overcast
7:04 PM 44.6 °F 36.9 °F 28.4 °F 53% 29.87 in 10.0 mi SSE 18.4 mph 24.2 mph N/A   Light Drizzle
7:24 PM 44.6 °F 38.4 °F 30.2 °F 57% 29.89 in 10.0 mi South 12.7 mph 20.7 mph N/A Rain Light Rain
7:45 PM 44.6 °F 37.8 °F 30.2 °F 57% 29.89 in 10.0 mi South 15.0 mph - N/A Rain Light Rain
8:04 PM 44.6 °F 37.4 °F 32.0 °F 61% 29.87 in 10.0 mi South 16.1 mph 19.6 mph N/A   Light Drizzle
8:24 PM 46.4 °F 39.2 °F 32.0 °F 57% 29.87 in 10.0 mi South 18.4 mph 32.2 mph N/A   Overcast
8:45 PM 44.6 °F 36.6 °F 33.8 °F 66% 29.86 in 10.0 mi South 19.6 mph - N/A   Overcast
9:04 PM 44.6 °F 37.4 °F 35.6 °F 71% 29.86 in 10.0 mi South 16.1 mph 27.6 mph N/A   Overcast
9:24 PM 44.6 °F 36.6 °F 35.6 °F 71% 29.85 in 10.0 mi SSE 19.6 mph 26.5 mph N/A   Overcast
9:45 PM 44.6 °F 37.4 °F 35.6 °F 71% 29.85 in 10.0 mi South 16.1 mph 25.3 mph N/A   Overcast
10:04 PM 44.6 °F 37.4 °F 35.6 °F 71% 29.84 in 10.0 mi South 16.1 mph 23.0 mph N/A   Overcast
10:25 PM 42.8 °F 35.1 °F 35.6 °F 76% 29.84 in 10.0 mi South 16.1 mph 26.5 mph N/A   Overcast
10:45 PM 42.8 °F 34.3 °F 37.4 °F 81% 29.83 in 10.0 mi South 19.6 mph 25.3 mph N/A   Overcast
11:04 PM 42.8 °F 35.1 °F 37.4 °F 81% 29.83 in 10.0 mi South 16.1 mph 23.0 mph N/A   Overcast
11:25 PM 42.8 °F 34.5 °F 37.4 °F 81% 29.81 in 10.0 mi South 18.4 mph 24.2 mph N/A   Overcast
11:45 PM 42.8 °F 34.8 °F 37.4 °F 81% 29.81 in 10.0 mi South 17.3 mph 25.3 mph N/A   Overcast